Hourly Weather Roundup
Issued by NWS Central Illinois

Home | Current Version | Previous Version | Text Only | Print | Product List | Glossary On
Versions: 1 2 3 4 5 6 7 8 9 10 11 12 13 14 15 16 17 18 19 20 21 22 23 24 25 26 27 28 29 30 31 32 33 34 35 36 37 38 39 40 41 42 43 44 45 46 47 48 49 50
000
NZUS43 KILX 180910
HWRILX

Area Weather Roundup
National Weather Service Lincoln IL
300 AM CST SUN FEB 18 2018

NOTE:  "FAIR" indicates few or no clouds below 12,000 feet, with
       no sigificant weather and/or obstructions to visibility.


CITY           SKY/WX    TMP DP  RH WIND       PRES   REMARKS
Bloomington    FAIR      20  18  92 N6        30.25F FOG     WCI  12
Champaign      FAIR      23  21  92 NW8       30.25S WCI  14
Danville       FAIR      24  22  93 NW8       30.23F WCI  14
Decatur        FOG       21  20  96 CALM      30.26R VSB 3/4
Effingham      FAIR      27  27 100 CALM      30.29R FOG
Flora          FAIR      28  27  96 SW3       30.30R FOG
Galesburg      MOCLDY    12  11  95 CALM      30.22F
Jacksonville   CLEAR     23  22  95 SE3       30.24F
Lacon          FAIR      15  15  96 CALM      30.24S FOG
Lawrenceville  FAIR      29  28  96 CALM      30.29R
Litchfield     CLEAR     24  24  98 CALM      30.26R
$$


CITY           SKY/WX    TMP DP  RH WIND       PRES   REMARKS
Lincoln        FAIR      24  24 100 CALM      30.27R
Macomb         CLEAR     21  21  98 CALM      30.24F
Mattoon        FAIR      23  21  92 N8        30.25R FOG     WCI  14
Mt Carmel AP   FAIR      29  29  97 CALM      30.30R FOG
Olney-Noble AP FAIR      28  26  93 CALM      30.29S FOG
Paris AP       FAIR      26  26  96 N3        30.28R
Peoria         FAIR      18  16  92 CALM      30.25F FOG
Pontiac        FOG       10   9  98 CALM      30.27S VSB 1
Rantoul        FAIR      28  26  91 NW8       30.25F WCI  20
Robinson       FAIR      26  26 100 CALM      30.30R FOG
Springfield    FAIR      22  20  92 CALM      30.26S
Taylorville    FOG       22  21  97 N5        30.25F VSB 1/2 WCI  15
$$

...REGIONAL REPORTS...


CITY           SKY/WX    TMP DP  RH WIND       PRES   REMARKS
Chicago O`Hare FAIR      21  18  88 SW6       30.22R WCI  13
Kankakee       FAIR      17  15  93 S5        30.29R WCI  10
Moline         FAIR      12   8  84 CALM      30.21F
Mount Sterling CLEAR     22  21  96 S5        30.22F WCI  16
Mount Vernon   FAIR      24  23  96 CALM      30.31R FOG
Pittsfield     CLEAR     23  22  94 S3        30.24F
Quincy         CLEAR     27  23  85 SE7       30.21F WCI  19
Rockford       FAIR      17  14  88 S6        30.22S WCI   9
$$


CITY           SKY/WX    TMP DP  RH WIND       PRES   REMARKS
Burlington     PTCLDY    24  21  88 CALM      30.19F FOG
Cedar Rapids   HAZE      16  11  80 CALM      30.15S VSB 1/4
Des Moines     CLEAR     26  22  84 SE8       30.10F WCI  18
Kirksville     CLEAR     28  24  85 SE8       30.17F WCI  20
Ottumwa        CLEAR     26  22  84 SE6       30.14F WCI  19
St Louis       CLEAR     27  26  96 CALM      30.28R
$$


CITY           SKY/WX    TMP DP  RH WIND       PRES   REMARKS
Terre Haute    FAIR      26  25  96 CALM      30.28R
Evansville     FOG       28  28 100 CALM      30.31R VSB 3/4
Indianapolis   FAIR      27  23  85 NW14      30.26R WCI  16
Lafayette      FAIR      26  24  92 VRB5      30.27R WCI  20
Madison        FAIR      21  19  92 S5        30.17R WCI  15
Milwaukee      FAIR      25  21  85 W5        30.19R WCI  19
$$






USA.gov is the U.S. government's official web portal to all federal, state and local government web resources and services.